Overview Statistics Trail Chart Weather Telemetry Raw packets
 

This is the latest recevied weather packets stored in our database for station/object WA6OOO. If no packets are shown the sender has not sent any weather packets the latest 10 day(s).

<< 21 22 23 24 25 26 27 >>
Time Temp. Humidity Pressure Rain* Wind** Luminosity Snow
1788533790 20° C 78% 1016.6 hPa 0 mm - 40 W/m² -
1788533485 20° C 78% 1016.6 hPa 0 mm - 38 W/m² -
1788533181 19.44° C 79% 1016.6 hPa 0 mm - 37 W/m² -
1788532877 19.44° C 78% 1016.6 hPa 0 mm - 39 W/m² -
1788532572 18.89° C 79% 1016.3 hPa 0 mm - 77 W/m² -
1788532269 18.89° C 79% 1016.4 hPa 0 mm - 48 W/m² -
1788531965 18.89° C 80% 1016.5 hPa 0 mm - 38 W/m² -
1788531665 18.89° C 80% 1016.6 hPa 0 mm - 52 W/m² -
1788531361 18.33° C 81% 1016.4 hPa 0 mm - 44 W/m² -
1788531056 18.33° C 81% 1016.3 hPa 0 mm - 36 W/m² -
1788530752 18.33° C 82% 1016.4 hPa 0 mm - 30 W/m² -
1788530445 17.78° C 83% 1016.2 hPa 0 mm - 20 W/m² -
1788530145 17.78° C 83% 1016.1 hPa 0 mm - 19 W/m² -
1788529841 17.78° C 83% 1016.1 hPa 0 mm - 14 W/m² -
1788529537 17.78° C 84% 1016 hPa 0 mm - 10 W/m² -
1788529230 17.78° C 85% 1016 hPa 0 mm - 7 W/m² -
1788528925 17.22° C 86% 1015.9 hPa 0 mm - 4 W/m² -
1788528621 17.22° C 87% 1015.9 hPa 0 mm - 2 W/m² -
1788528316 16.67° C 87% 1016 hPa 0 mm - 1 W/m² -
1788528015 16.67° C 87% 1015.8 hPa 0 mm - 0 W/m² -
1788527710 16.67° C 88% 1015.7 hPa 0 mm - 0 W/m² -
1788527406 16.67° C 87% 1015.8 hPa 0 mm - 0 W/m² -
1788527105 16.67° C 87% 1015.8 hPa 0 mm - 0 W/m² -
1788526800 16.67° C 87% 1015.8 hPa 0 mm - 0 W/m² -
1788526496 17.22° C 87% 1015.7 hPa 0 mm - 0 W/m² -

* Rain latest hour (hover to see other rain measurements)
** Current wind speed in m/s (hover to see current wind gust speed)